sat.trackr.live / text

‹ back to catalog

STARLINK-35950

NORAD 66622 · 2025-271F

PAYLOAD ACTIVE UNKNOWN

§ Identity

Operator
Country
US
Launch date
2025-11-23
Launch site
AFWTR
Launch vehicle
Mass (kg)
RCS (m²)

Purposes: comms

External: N2YO · Heavens-Above · Gunter

§ Orbital elements

Epoch: 2026-05-24T23:19:17.522976Z

Period
94.10 min
Inclination
53.1567°
Eccentricity
0.0001028
Mean motion
15.30230905 rev/d
Perigee alt
474.4 km
Apogee alt
475.8 km
Semi-major
6,853.3 km
B*
7.0486e-4
RAAN
145.7668°
Arg perigee
91.6932°
Mean anomaly
268.4186°
Rev number
2,924

§ Raw data

STARLINK-359501 66622U 25271F   26144.97173059  .00020594  00000+0  70486-3 0  99942 66622  53.1567 145.7668 0001028  91.6932 268.4186 15.30230905 29249

JSON: /api/v1/satellites/66622 · /tle

For live sub-satellite position, see the globe view (requires WebGL).

§ Visibility from observer

Set your observer location to see the next 7 days of passes ≥ 10°. The values pass through the URL so the page stays shareable.

No JS? Fill the form by hand. The geolocation button needs JavaScript.